Time,TemperatureF,DewpointF,PressureIn,WindDirection,WindDirectionDegrees,WindSpeedMPH,WindSpeedGustMPH,Humidity,HourlyPrecipIn,Conditions,Clouds,dailyrainin,SoftwareType,DateUTC
2013-03-06 00:02:00,29.0,27.0,29.82,NNW,346,8.0,17.0,94,0.07,,,0.22,,2013-03-06 05:02:00,
2013-03-06 00:12:00,29.0,27.0,29.82,NNW,346,8.0,17.0,94,0.07,,,0.22,,2013-03-06 05:12:00,
2013-03-06 00:22:00,29.0,27.0,29.82,North,5,7.0,18.0,94,0.06,,,0.23,,2013-03-06 05:22:00,
2013-03-06 00:32:00,28.0,27.0,29.82,NNW,346,9.0,21.0,94,0.04,,,0.23,,2013-03-06 05:32:00,
2013-03-06 00:42:00,28.0,27.0,29.82,NNW,346,9.0,21.0,94,0.04,,,0.23,,2013-03-06 05:42:00,
2013-03-06 00:52:00,29.0,27.0,29.83,NNE,15,12.0,24.0,92,0.02,,,0.23,,2013-03-06 05:52:00,
2013-03-06 01:02:00,29.0,27.0,29.83,NNW,327,9.0,18.0,91,0.01,,,0.23,,2013-03-06 06:02:00,
2013-03-06 01:11:00,29.0,27.0,29.83,NNW,327,9.0,18.0,91,0.01,,,0.23,,2013-03-06 06:11:00,
2013-03-06 01:22:00,29.0,26.0,29.83,NNE,15,12.0,20.0,89,0.00,,,0.23,,2013-03-06 06:22:00,
2013-03-06 01:32:00,29.0,26.0,29.84,North,355,11.0,17.0,88,0.00,,,0.23,,2013-03-06 06:32:00,
2013-03-06 01:42:00,29.0,26.0,29.84,North,355,11.0,17.0,88,0.00,,,0.23,,2013-03-06 06:42:00,
2013-03-06 01:52:00,28.0,25.0,29.84,North,355,10.0,20.0,88,0.00,,,0.23,,2013-03-06 06:52:00,
2013-03-06 02:01:00,28.0,25.0,29.85,North,350,10.0,17.0,87,0.00,,,0.23,,2013-03-06 07:01:00,
2013-03-06 02:11:00,28.0,25.0,29.85,North,350,10.0,17.0,87,0.00,,,0.23,,2013-03-06 07:11:00,
2013-03-06 02:22:00,28.0,25.0,29.85,North,5,9.0,17.0,87,0.00,,,0.23,,2013-03-06 07:22:00,
2013-03-06 02:32:00,28.0,25.0,29.86,NNW,347,10.0,19.0,87,0.00,,,0.23,,2013-03-06 07:32:00,
2013-03-06 02:42:00,28.0,25.0,29.86,NNW,347,10.0,19.0,87,0.00,,,0.23,,2013-03-06 07:42:00,
2013-03-06 02:52:00,28.0,25.0,29.87,North,5,11.0,21.0,87,0.00,,,0.23,,2013-03-06 07:52:00,
2013-03-06 03:01:00,28.0,25.0,29.87,NNW,346,11.0,17.0,88,0.00,,,0.23,,2013-03-06 08:01:00,
2013-03-06 03:11:00,28.0,25.0,29.87,NNW,346,11.0,17.0,88,0.00,,,0.23,,2013-03-06 08:11:00,
2013-03-06 03:21:00,28.0,25.0,29.87,NNW,341,7.0,14.0,87,0.00,,,0.23,,2013-03-06 08:21:00,
2013-03-06 03:32:00,27.0,24.0,29.88,North,5,9.0,16.0,87,0.00,,,0.23,,2013-03-06 08:32:00,
2013-03-06 03:42:00,27.0,24.0,29.88,North,5,9.0,16.0,87,0.00,,,0.23,,2013-03-06 08:42:00,
2013-03-06 03:52:00,27.0,24.0,29.88,WNW,301,5.0,14.0,88,0.00,,,0.23,,2013-03-06 08:52:00,
2013-03-06 04:02:00,27.0,24.0,29.89,North,355,10.0,16.0,88,0.00,,,0.23,,2013-03-06 09:02:00,
2013-03-06 04:12:00,27.0,24.0,29.89,North,355,10.0,16.0,88,0.00,,,0.23,,2013-03-06 09:12:00,
2013-03-06 04:22:00,27.0,24.0,29.90,NNW,345,8.0,17.0,88,0.00,,,0.23,,2013-03-06 09:22:00,
2013-03-06 04:32:00,27.0,24.0,29.91,NW,319,6.0,12.0,88,0.00,,,0.23,,2013-03-06 09:32:00,
2013-03-06 04:42:00,27.0,24.0,29.91,NW,319,6.0,12.0,88,0.00,,,0.23,,2013-03-06 09:42:00,
2013-03-06 04:52:00,27.0,24.0,29.91,North,5,7.0,13.0,88,0.00,,,0.23,,2013-03-06 09:52:00,
2013-03-06 05:02:00,27.0,24.0,29.93,NNE,15,8.0,15.0,89,0.00,,,0.23,,2013-03-06 10:02:00,
2013-03-06 05:11:00,27.0,24.0,29.93,NNE,15,8.0,15.0,89,0.00,,,0.23,,2013-03-06 10:11:00,
2013-03-06 05:22:00,27.0,24.0,29.94,North,355,5.0,16.0,89,0.00,,,0.23,,2013-03-06 10:22:00,
2013-03-06 05:32:00,27.0,24.0,29.95,NW,324,6.0,15.0,89,0.00,,,0.23,,2013-03-06 10:32:00,
2013-03-06 05:42:00,27.0,24.0,29.95,NW,324,6.0,15.0,89,0.00,,,0.23,,2013-03-06 10:42:00,
2013-03-06 05:52:00,27.0,24.0,29.96,NNE,14,6.0,13.0,89,0.00,,,0.23,,2013-03-06 10:52:00,
2013-03-06 06:02:00,27.0,24.0,29.97,NNW,340,4.0,11.0,89,0.00,,,0.23,,2013-03-06 11:02:00,
2013-03-06 06:11:00,27.0,24.0,29.97,NNW,340,4.0,11.0,89,0.00,,,0.23,,2013-03-06 11:11:00,
2013-03-06 06:22:00,27.0,24.0,29.98,North,9,4.0,16.0,89,0.00,,,0.23,,2013-03-06 11:22:00,
2013-03-06 06:32:00,27.0,24.0,29.99,NW,315,5.0,12.0,89,0.00,,,0.23,,2013-03-06 11:32:00,
2013-03-06 06:42:00,27.0,24.0,29.99,NW,315,5.0,12.0,89,0.00,,,0.23,,2013-03-06 11:42:00,
2013-03-06 06:52:00,27.0,24.0,30.00,NNW,336,6.0,14.0,89,0.00,,,0.23,,2013-03-06 11:52:00,
2013-03-06 07:02:00,27.0,24.0,30.01,NNE,18,5.0,11.0,89,0.00,,,0.23,,2013-03-06 12:02:00,
2013-03-06 07:12:00,27.0,24.0,30.01,NNE,18,5.0,11.0,89,0.00,,,0.23,,2013-03-06 12:12:00,
2013-03-06 07:22:00,27.0,24.0,30.03,NW,319,4.0,11.0,89,0.00,,,0.23,,2013-03-06 12:22:00,
2013-03-06 07:33:00,27.0,24.0,30.03,NNW,330,3.0,12.0,89,0.00,,,0.23,,2013-03-06 12:33:00,
2013-03-06 07:42:00,27.0,24.0,30.03,NNW,330,3.0,12.0,89,0.00,,,0.23,,2013-03-06 12:42:00,
2013-03-06 07:52:00,27.0,24.0,30.04,NNW,336,2.0,9.0,89,0.00,,,0.23,,2013-03-06 12:52:00,
2013-03-06 08:02:00,27.0,24.0,30.06,NW,310,3.0,8.0,89,0.00,,,0.23,,2013-03-06 13:02:00,
2013-03-06 08:12:00,27.0,24.0,30.06,NW,310,3.0,8.0,89,0.00,,,0.23,,2013-03-06 13:12:00,
2013-03-06 08:22:00,28.0,25.0,30.06,NW,304,4.0,9.0,89,0.00,,,0.23,,2013-03-06 13:22:00,
2013-03-06 08:32:00,28.0,25.0,30.07,NNW,327,3.0,10.0,88,0.00,,,0.23,,2013-03-06 13:32:00,
2013-03-06 08:42:00,28.0,25.0,30.07,NNW,327,3.0,10.0,88,0.00,,,0.23,,2013-03-06 13:42:00,
2013-03-06 08:52:00,28.0,25.0,30.07,NNW,327,3.0,10.0,88,0.00,,,0.23,,2013-03-06 13:52:00,
2013-03-06 09:02:00,30.0,26.0,30.09,NW,323,5.0,10.0,85,0.00,,,0.23,,2013-03-06 14:02:00,
2013-03-06 09:11:00,30.0,26.0,30.09,NW,323,5.0,10.0,85,0.00,,,0.23,,2013-03-06 14:11:00,
2013-03-06 09:22:00,32.0,27.0,30.10,WNW,291,5.0,10.0,83,0.00,,,0.23,,2013-03-06 14:22:00,
2013-03-06 09:32:00,33.0,28.0,30.10,WNW,297,5.0,11.0,82,0.00,,,0.23,,2013-03-06 14:32:00,
2013-03-06 09:42:00,33.0,28.0,30.10,WNW,297,5.0,11.0,82,0.00,,,0.23,,2013-03-06 14:42:00,
2013-03-06 09:52:00,33.0,28.0,30.10,North,349,7.0,11.0,82,0.00,,,0.23,,2013-03-06 14:52:00,
2013-03-06 10:02:00,33.0,28.0,30.10,NW,320,4.0,11.0,82,0.00,,,0.23,,2013-03-06 15:02:00,
2013-03-06 10:12:00,33.0,28.0,30.10,NW,320,4.0,11.0,82,0.00,,,0.23,,2013-03-06 15:12:00,
2013-03-06 10:22:00,34.0,29.0,30.11,NW,321,3.0,8.0,81,0.00,,,0.23,,2013-03-06 15:22:00,
2013-03-06 10:32:00,35.0,29.0,30.11,NW,306,4.0,9.0,80,0.00,,,0.23,,2013-03-06 15:32:00,
2013-03-06 10:42:00,35.0,29.0,30.11,NW,306,4.0,9.0,80,0.00,,,0.23,,2013-03-06 15:42:00,
2013-03-06 10:52:00,35.0,30.0,30.12,NW,315,2.0,8.0,81,0.00,,,0.23,,2013-03-06 15:52:00,
2013-03-06 11:02:00,34.0,28.0,30.13,NW,308,4.0,8.0,80,0.00,,,0.23,,2013-03-06 16:02:00,
2013-03-06 11:12:00,34.0,28.0,30.13,NW,308,4.0,8.0,80,0.00,,,0.23,,2013-03-06 16:12:00,
2013-03-06 11:21:00,35.0,29.0,30.13,NW,323,3.0,9.0,80,0.00,,,0.23,,2013-03-06 16:21:00,
2013-03-06 11:32:00,35.0,29.0,30.13,North,355,5.0,11.0,79,0.00,,,0.23,,2013-03-06 16:32:00,
2013-03-06 11:42:00,35.0,29.0,30.13,North,355,5.0,11.0,79,0.00,,,0.23,,2013-03-06 16:42:00,
2013-03-06 11:52:00,36.0,29.0,30.13,NNE,16,6.0,10.0,77,0.00,,,0.23,,2013-03-06 16:52:00,
2013-03-06 12:01:00,36.0,29.0,30.14,North,360,4.0,11.0,76,0.00,,,0.23,,2013-03-06 17:01:00,
2013-03-06 12:11:00,36.0,29.0,30.14,North,360,4.0,11.0,76,0.00,,,0.23,,2013-03-06 17:11:00,
2013-03-06 12:22:00,37.0,30.0,30.15,NNW,342,5.0,10.0,75,0.00,,,0.23,,2013-03-06 17:22:00,
2013-03-06 12:32:00,37.0,30.0,30.16,North,9,3.0,7.0,75,0.00,,,0.23,,2013-03-06 17:32:00,
2013-03-06 12:42:00,37.0,30.0,30.16,North,9,3.0,7.0,75,0.00,,,0.23,,2013-03-06 17:42:00,
2013-03-06 12:52:00,37.0,30.0,30.16,WNW,296,2.0,6.0,75,0.00,,,0.23,,2013-03-06 17:52:00,
2013-03-06 13:02:00,37.0,30.0,30.17,WSW,249,3.0,7.0,75,0.00,,,0.23,,2013-03-06 18:02:00,
2013-03-06 13:29:00,37.0,30.0,30.16,NNW,343,3.0,6.0,75,0.00,,,0.23,,2013-03-06 18:29:00,
2013-03-06 13:42:00,37.0,29.0,30.16,WNW,299,3.0,7.0,74,0.00,,,0.23,,2013-03-06 18:42:00,
2013-03-06 13:52:00,37.0,30.0,30.16,NNW,328,3.0,7.0,75,0.00,,,0.23,,2013-03-06 18:52:00,
2013-03-06 14:02:00,37.0,29.0,30.16,WNW,286,2.0,8.0,74,0.00,,,0.23,,2013-03-06 19:02:00,
2013-03-06 14:11:00,37.0,29.0,30.16,WNW,286,2.0,8.0,74,0.00,,,0.23,,2013-03-06 19:11:00,
2013-03-06 14:22:00,37.0,30.0,30.17,NW,315,3.0,8.0,75,0.00,,,0.23,,2013-03-06 19:22:00,
2013-03-06 14:32:00,37.0,29.0,30.16,WNW,287,2.0,7.0,73,0.00,,,0.23,,2013-03-06 19:32:00,
2013-03-06 14:43:00,37.0,29.0,30.16,WNW,287,2.0,7.0,73,0.00,,,0.23,,2013-03-06 19:43:00,
2013-03-06 14:52:00,37.0,29.0,30.17,West,273,3.0,6.0,74,0.00,,,0.23,,2013-03-06 19:52:00,
2013-03-06 15:02:00,37.0,30.0,30.17,West,273,3.0,7.0,75,0.00,,,0.23,,2013-03-06 20:02:00,
2013-03-06 15:12:00,37.0,30.0,30.17,West,273,3.0,7.0,75,0.00,,,0.23,,2013-03-06 20:12:00,
2013-03-06 15:22:00,36.0,29.0,30.16,WNW,285,2.0,8.0,75,0.00,,,0.23,,2013-03-06 20:22:00,
2013-03-06 15:32:00,37.0,30.0,30.17,WNW,294,3.0,9.0,75,0.00,,,0.23,,2013-03-06 20:32:00,
2013-03-06 15:42:00,37.0,30.0,30.17,WNW,294,3.0,9.0,75,0.00,,,0.23,,2013-03-06 20:42:00,
2013-03-06 15:52:00,37.0,30.0,30.17,WNW,294,4.0,7.0,75,0.00,,,0.23,,2013-03-06 20:52:00,
2013-03-06 16:02:00,36.0,29.0,30.18,West,279,4.0,8.0,76,0.00,,,0.23,,2013-03-06 21:02:00,
2013-03-06 16:12:00,36.0,29.0,30.18,West,279,4.0,8.0,76,0.00,,,0.23,,2013-03-06 21:12:00,
2013-03-06 16:22:00,36.0,29.0,30.19,WNW,284,4.0,10.0,77,0.00,,,0.23,,2013-03-06 21:22:00,
2013-03-06 16:32:00,36.0,29.0,30.18,West,277,4.0,9.0,77,0.00,,,0.23,,2013-03-06 21:32:00,
2013-03-06 16:42:00,36.0,29.0,30.18,West,277,4.0,9.0,77,0.00,,,0.23,,2013-03-06 21:42:00,
2013-03-06 16:52:00,36.0,29.0,30.19,West,272,4.0,11.0,76,0.00,,,0.23,,2013-03-06 21:52:00,
2013-03-06 17:02:00,36.0,29.0,30.19,West,259,4.0,7.0,77,0.00,,,0.23,,2013-03-06 22:02:00,
2013-03-06 17:11:00,36.0,29.0,30.19,West,259,4.0,7.0,77,0.00,,,0.23,,2013-03-06 22:11:00,
2013-03-06 17:22:00,35.0,29.0,30.20,West,274,4.0,8.0,79,0.00,,,0.23,,2013-03-06 22:22:00,
2013-03-06 17:32:00,35.0,29.0,30.21,West,270,3.0,12.0,78,0.00,,,0.23,,2013-03-06 22:32:00,
2013-03-06 17:42:00,35.0,29.0,30.21,West,270,3.0,12.0,78,0.00,,,0.23,,2013-03-06 22:42:00,
2013-03-06 17:52:00,35.0,29.0,30.21,West,280,4.0,12.0,78,0.00,,,0.23,,2013-03-06 22:52:00,
2013-03-06 18:02:00,35.0,29.0,30.21,WNW,297,2.0,8.0,80,0.00,,,0.23,,2013-03-06 23:02:00,
2013-03-06 18:11:00,35.0,29.0,30.21,WNW,297,2.0,8.0,80,0.00,,,0.23,,2013-03-06 23:11:00,
2013-03-06 18:22:00,35.0,29.0,30.21,NW,304,1.0,5.0,80,0.00,,,0.23,,2013-03-06 23:22:00,
2013-03-06 18:32:00,35.0,29.0,30.22,WNW,283,2.0,5.0,79,0.00,,,0.22,,2013-03-06 23:32:00,
2013-03-06 18:42:00,35.0,29.0,30.22,WNW,283,2.0,5.0,79,0.00,,,0.22,,2013-03-06 23:42:00,
2013-03-06 18:52:00,35.0,30.0,30.22,WSW,258,0.0,4.0,81,0.00,,,0.22,,2013-03-06 23:52:00,
2013-03-06 19:02:00,34.0,29.0,30.23,WSW,258,1.0,3.0,81,0.00,,,0.22,,2013-03-07 00:02:00,
2013-03-06 19:11:00,34.0,29.0,30.23,WSW,258,1.0,3.0,81,0.00,,,0.22,,2013-03-07 00:11:00,
2013-03-06 19:22:00,34.0,29.0,30.23,West,272,0.0,4.0,82,0.00,,,0.22,,2013-03-07 00:22:00,
2013-03-06 19:32:00,34.0,29.0,30.24,West,272,0.0,3.0,82,0.00,,,0.20,,2013-03-07 00:32:00,
2013-03-06 19:42:00,34.0,29.0,30.24,West,272,0.0,3.0,82,0.00,,,0.20,,2013-03-07 00:42:00,
2013-03-06 19:52:00,34.0,29.0,30.24,West,272,0.0,3.0,83,0.00,,,0.20,,2013-03-07 00:52:00,
2013-03-06 20:02:00,34.0,29.0,30.24,West,272,1.0,2.0,83,0.00,,,0.20,,2013-03-07 01:02:00,
2013-03-06 20:11:00,34.0,29.0,30.24,West,272,1.0,2.0,83,0.00,,,0.20,,2013-03-07 01:11:00,
2013-03-06 20:22:00,34.0,30.0,30.24,WSW,248,0.0,3.0,84,0.00,,,0.20,,2013-03-07 01:22:00,
2013-03-06 20:32:00,34.0,29.0,30.25,WSW,248,1.0,3.0,83,0.00,,,0.18,,2013-03-07 01:32:00,
2013-03-06 20:42:00,34.0,29.0,30.25,WSW,248,1.0,3.0,83,0.00,,,0.18,,2013-03-07 01:42:00,
2013-03-06 20:52:00,34.0,30.0,30.25,WSW,257,2.0,4.0,84,0.00,,,0.18,,2013-03-07 01:52:00,
2013-03-06 21:01:00,34.0,30.0,30.25,WSW,257,0.0,3.0,84,0.00,,,0.18,,2013-03-07 02:01:00,
2013-03-06 21:11:00,34.0,30.0,30.25,WSW,257,0.0,3.0,84,0.00,,,0.18,,2013-03-07 02:11:00,
2013-03-06 21:21:00,34.0,30.0,30.25,WSW,257,0.0,2.0,84,0.00,,,0.18,,2013-03-07 02:21:00,
2013-03-06 21:32:00,34.0,29.0,30.26,WSW,257,0.0,1.0,83,0.00,,,0.16,,2013-03-07 02:32:00,
2013-03-06 21:42:00,34.0,29.0,30.26,WSW,257,0.0,1.0,83,0.00,,,0.16,,2013-03-07 02:42:00,
2013-03-06 21:51:00,34.0,29.0,30.26,WSW,257,0.0,1.0,83,0.00,,,0.16,,2013-03-07 02:51:00,
2013-03-06 22:02:00,34.0,29.0,30.26,West,264,1.0,2.0,83,0.00,,,0.16,,2013-03-07 03:02:00,
2013-03-06 22:11:00,34.0,29.0,30.26,West,264,1.0,2.0,83,0.00,,,0.16,,2013-03-07 03:11:00,
2013-03-06 22:22:00,34.0,29.0,30.26,SW,236,0.0,4.0,83,0.00,,,0.16,,2013-03-07 03:22:00,
2013-03-06 22:32:00,34.0,29.0,30.26,SW,222,0.0,3.0,82,0.00,,,0.12,,2013-03-07 03:32:00,
2013-03-06 22:42:00,34.0,29.0,30.26,SW,222,0.0,3.0,82,0.00,,,0.12,,2013-03-07 03:42:00,
2013-03-06 22:52:00,34.0,30.0,30.26,West,259,1.0,5.0,84,0.00,,,0.12,,2013-03-07 03:52:00,
2013-03-06 23:02:00,34.0,30.0,30.26,West,259,1.0,5.0,84,0.00,,,0.12,,2013-03-07 04:02:00,
2013-03-06 23:12:00,34.0,30.0,30.26,West,259,1.0,5.0,84,0.00,,,0.12,,2013-03-07 04:12:00,
2013-03-06 23:22:00,33.0,29.0,30.27,WSW,257,2.0,6.0,84,0.00,,,0.12,,2013-03-07 04:22:00,
2013-03-06 23:32:00,33.0,29.0,30.26,WSW,248,1.0,4.0,84,0.00,,,0.06,,2013-03-07 04:32:00,
2013-03-06 23:42:00,33.0,29.0,30.26,WSW,248,1.0,4.0,84,0.00,,,0.06,,2013-03-07 04:42:00,
2013-03-06 23:52:00,33.0,29.0,30.26,WSW,248,0.0,2.0,84,0.00,,,0.06,,2013-03-07 04:52:00,